TimeCDT,TemperatureF,Dew PointF,Humidity,Sea Level PressureIn,VisibilityMPH,Wind Direction,Wind SpeedMPH,Gust SpeedMPH,PrecipitationIn,Events,Conditions,WindDirDegrees,DateUTC
12:53 AM,66.9,63.0,87,29.96,10.0,Calm,Calm,-,N/A,,Clear,0,2013-09-08 05:53:00
1:53 AM,64.9,63.0,93,29.96,9.0,Calm,Calm,-,N/A,,Clear,0,2013-09-08 06:53:00
2:53 AM,66.0,63.0,90,29.94,9.0,Calm,Calm,-,N/A,,Clear,0,2013-09-08 07:53:00
3:53 AM,64.9,63.0,93,29.94,8.0,Calm,Calm,-,N/A,,Clear,0,2013-09-08 08:53:00
4:53 AM,64.0,62.1,93,29.95,6.0,Calm,Calm,-,N/A,,Clear,0,2013-09-08 09:53:00
5:53 AM,64.0,62.1,93,29.96,7.0,Calm,Calm,-,N/A,,Clear,0,2013-09-08 10:53:00
6:53 AM,64.0,62.1,93,29.96,8.0,Calm,Calm,-,N/A,,Clear,0,2013-09-08 11:53:00
7:53 AM,68.0,64.0,87,29.97,10.0,South,4.6,-,N/A,,Clear,190,2013-09-08 12:53:00
8:53 AM,77.0,64.9,66,29.98,10.0,South,5.8,-,N/A,,Clear,180,2013-09-08 13:53:00
9:53 AM,84.9,64.0,49,29.98,10.0,SSW,10.4,-,N/A,,Clear,210,2013-09-08 14:53:00
10:53 AM,90.0,63.0,40,29.98,10.0,WSW,11.5,-,N/A,,Clear,240,2013-09-08 15:53:00
11:53 AM,91.9,62.1,37,29.97,10.0,WSW,8.1,-,N/A,,Clear,250,2013-09-08 16:53:00
12:53 PM,93.0,62.1,36,29.96,10.0,WNW,6.9,-,N/A,,Clear,290,2013-09-08 17:53:00
1:53 PM,93.9,61.0,33,29.94,10.0,West,4.6,-,N/A,,Scattered Clouds,270,2013-09-08 18:53:00
2:53 PM,91.9,61.0,35,29.92,10.0,SSE,5.8,-,N/A,,Mostly Cloudy,150,2013-09-08 19:53:00
3:53 PM,91.9,62.1,37,29.91,10.0,South,5.8,-,N/A,,Mostly Cloudy,170,2013-09-08 20:53:00
4:53 PM,93.9,61.0,33,29.89,10.0,South,10.4,-,N/A,,Clear,180,2013-09-08 21:53:00
5:53 PM,91.0,63.0,39,29.89,10.0,South,8.1,-,N/A,,Clear,170,2013-09-08 22:53:00
6:53 PM,88.0,63.0,43,29.89,10.0,South,6.9,-,N/A,,Clear,190,2013-09-08 23:53:00
7:53 PM,82.9,64.0,53,29.91,10.0,Calm,Calm,-,N/A,,Clear,0,2013-09-09 00:53:00
8:53 PM,75.0,66.0,73,29.92,10.0,South,3.5,-,N/A,,Clear,170,2013-09-09 01:53:00
9:53 PM,73.0,66.0,79,29.93,10.0,South,4.6,-,N/A,,Clear,190,2013-09-09 02:53:00
10:53 PM,73.0,66.0,79,29.94,10.0,Calm,Calm,-,N/A,,Clear,0,2013-09-09 03:53:00
11:53 PM,70.0,66.0,87,29.94,10.0,South,4.6,-,N/A,,Clear,190,2013-09-09 04:53:00